Weather History for Peoria, IL

Change the Weather History Date:

Saturday, October 20, 2012

  Actual Average Record
Temperature  
Mean Temperature 48 °F 53 °F  
Max Temperature 56 °F 63 °F 87 °F (2003)
Min Temperature 39 °F 42 °F 22 °F (1960)
Degree Days  
Heating Degree Days 17 13  
Month to date heating degree days 258 197  
Since 1 July heating degree days 362 287  
Cooling Degree Days 0 0  
Month to date cooling degree days 0 12  
Year to date cooling degree days 1368 1036  
Moisture  
Dew Point 41 °F    
Average Humidity 80    
Maximum Humidity 100    
Minimum Humidity 59    
Precipitation  
Precipitation T in 0.10 in 1.15 in (1916)
Month to date precipitation 3.50 1.77  
Year to date precipitation 23.70 29.87  
Snow  
Snow 0.00 in 0.00 in 0.30 in (1916)
Month to date snowfall 0.0 0.0  
Since 1 July snowfall 0.0 0.0  
Since 1 September snowfall 0.0 0.0  
Snow Depth 0.00 in    
Sea Level Pressure  
Sea Level Pressure 29.84 in    
Wind  
Wind Speed 3 mph (West)    
Max Wind Speed 12 mph    
Max Gust Speed 15 mph    
Visibility 7 miles    
Events Fog , Rain    
T = Trace of Precipitation, MM = Missing Value Source: NWS Daily Summary

Daily Weather History Graph

Daily Weather History Graph

Search for Another Location

Airport:

Trip Planner

Search our weather history database for the weather conditions in past years. The results will help you decide how hot, cold, wet, or windy it might be!

Date:

Astronomy

Oct. 20, 2012 Rise Set
Actual Time 7:15 AM CDT 6:10 PM CDT
Civil Twilight 6:48 AM CDT 6:38 PM CDT
Nautical Twilight 6:16 AM CDT 7:09 PM CDT
Astronomical Twilight 5:44 AM CDT 7:41 PM CDT
Moon 12:52 PM CDT 10:55 PM CDT
Length of Visible Light 11h 50m
Length of Day
10h 54m
Waxing Crescent, 34% of the Moon is Illuminated
Oct 20
Waxing Crescent
Oct 21
First Quarter
Oct 29
Full
Nov 6
Last Quarter
Nov 13
New

Hourly Weather History & Observations

Time (CDT) Temp. Windchill Dew Point Humidity Pressure Visibility Wind Dir Wind Speed Gust Speed Precip Events Conditions
12:02 AM 46.4 °F 44.3 °F 44.6 °F 93% 29.71 in 6.0 mi WNW 4.6 mph - N/A   Overcast
12:54 AM 46.9 °F - 45.0 °F 93% 29.73 in 6.0 mi WNW 5.8 mph - 0.01 in Rain Light Rain
1:12 AM 46.4 °F 44.3 °F 44.6 °F 93% 29.73 in 10.0 mi WNW 4.6 mph - 0.00 in   Mostly Cloudy
1:54 AM 45.0 °F 43.5 °F 43.0 °F 93% 29.74 in 10.0 mi WNW 3.5 mph - 0.00 in   Scattered Clouds
2:17 AM 44.6 °F 42.2 °F 42.8 °F 93% 29.75 in 10.0 mi WNW 4.6 mph - N/A   Scattered Clouds
2:32 AM 44.6 °F 41.4 °F 44.6 °F 100% 29.75 in 10.0 mi NW 5.8 mph - N/A   Mostly Cloudy
2:54 AM 45.0 °F 42.6 °F 43.0 °F 93% 29.76 in 10.0 mi WNW 4.6 mph - N/A   Scattered Clouds
3:54 AM 43.0 °F - 42.1 °F 97% 29.76 in 10.0 mi Calm Calm - N/A   Clear
4:54 AM 42.1 °F - 39.9 °F 92% 29.77 in 10.0 mi Calm Calm - N/A   Clear
5:54 AM 41.0 °F - 39.0 °F 93% 29.79 in 10.0 mi Calm Calm - N/A   Clear
6:20 AM 39.2 °F 35.9 °F 37.4 °F 93% 29.80 in 0.2 mi WSW 4.6 mph - N/A Fog Fog
6:29 AM 39.2 °F 35.9 °F 39.2 °F 100% 29.80 in 0.2 mi West 4.6 mph - N/A Fog Fog
6:39 AM 39.2 °F - 39.2 °F 100% 29.80 in 0.2 mi Calm Calm - N/A Fog Fog
6:54 AM 39.0 °F - 39.0 °F 100% 29.82 in 0.2 mi Calm Calm - N/A Fog Fog
7:36 AM 39.2 °F 37.0 °F 39.2 °F 100% 29.83 in 0.2 mi West 3.5 mph - N/A Fog Fog
7:46 AM 41.0 °F 38.0 °F 39.2 °F 93% 29.83 in 0.2 mi West 4.6 mph - N/A Fog Fog
7:54 AM 41.0 °F 39.0 °F 41.0 °F 100% 29.85 in 0.5 mi WNW 3.5 mph - N/A Fog Fog
8:00 AM 42.8 °F 40.1 °F 41.0 °F 93% 29.84 in 1.8 mi WNW 4.6 mph - N/A   Overcast
8:03 AM 42.8 °F 41.1 °F 41.0 °F 93% 29.84 in 3.0 mi WNW 3.5 mph - N/A   Overcast
8:54 AM 44.1 °F 40.1 °F 42.1 °F 93% 29.87 in 5.0 mi West 6.9 mph - N/A   Overcast
9:04 AM 44.6 °F 42.2 °F 42.8 °F 93% 29.86 in 5.0 mi NW 4.6 mph - N/A   Overcast
9:54 AM 45.0 °F 42.6 °F 43.0 °F 93% 29.88 in 6.0 mi WNW 4.6 mph - N/A   Mostly Cloudy
10:54 AM 48.9 °F - 44.1 °F 83% 29.89 in 10.0 mi WSW 4.6 mph - N/A   Overcast
11:21 AM 50.0 °F - 42.8 °F 76% 29.89 in 10.0 mi West 5.8 mph - N/A   Mostly Cloudy
11:54 AM 50.0 °F - 42.1 °F 74% 29.89 in 10.0 mi West 4.6 mph - N/A   Mostly Cloudy
12:51 PM 53.6 °F - 42.8 °F 67% 29.87 in 10.0 mi WSW 3.5 mph - N/A   Scattered Clouds
12:54 PM 53.1 °F - 41.0 °F 64% 29.88 in 10.0 mi West 8.1 mph - N/A   Mostly Cloudy
1:21 PM 53.6 °F - 41.0 °F 62% 29.88 in 10.0 mi Variable 5.8 mph - N/A   Overcast
1:54 PM 54.0 °F - 41.0 °F 62% 29.88 in 10.0 mi SW 5.8 mph - N/A   Overcast
2:54 PM 53.1 °F - 39.9 °F 61% 29.86 in 10.0 mi WSW 3.5 mph - N/A   Partly Cloudy
3:54 PM 54.0 °F - 41.0 °F 62% 29.88 in 10.0 mi South 3.5 mph - N/A   Scattered Clouds
4:54 PM 52.0 °F - 41.0 °F 66% 29.88 in 10.0 mi SW 5.8 mph - N/A   Clear
5:54 PM 50.0 °F - 41.0 °F 71% 29.89 in 10.0 mi South 5.8 mph - N/A   Clear
6:54 PM 48.0 °F - 39.9 °F 74% 29.89 in 10.0 mi Calm Calm - N/A   Clear
7:54 PM 45.0 °F - 39.9 °F 82% 29.91 in 10.0 mi Calm Calm - N/A   Clear
8:54 PM 44.1 °F - 39.9 °F 85% 29.93 in 9.0 mi Calm Calm - N/A   Clear
9:54 PM 44.1 °F 42.5 °F 39.0 °F 82% 29.93 in 10.0 mi ESE 3.5 mph - N/A   Clear
10:54 PM 44.1 °F - 39.9 °F 85% 29.94 in 10.0 mi Calm Calm - N/A   Clear
11:54 PM 43.0 °F 41.3 °F 39.0 °F 86% 29.94 in 10.0 mi East 3.5 mph - N/A   Clear